,,,PA_Meas_PMT16A,,PR_Meas_QMR101_102,,RH_Meas_QMH101,,SR_Meas_QMS101,,TA_Meas_QMH101,,GenWind,,GenWind,
date,time,status,PA,status,PR,status,RH,status,SR,status,TA,status,DirAvg,status,SpdAvg,
2010-09-28, 00:00:04,VALID,999.591,VALID,0,VALID,93.5773,VALID,0,VALID,23.3305,VALID,28,VALID,0.446484,
2010-09-28, 00:01:04,VALID,999.644,VALID,0,VALID,93.6002,VALID,0,VALID,23.311,VALID,28,VALID,0.355078,
2010-09-28, 00:02:04,VALID,999.653,VALID,0,VALID,93.6231,VALID,0,VALID,23.2915,VALID,57,VALID,0.610156,
2010-09-28, 00:03:04,VALID,999.626,VALID,0,VALID,93.6154,VALID,0,VALID,23.2915,VALID,57,VALID,0.696875,
2010-09-28, 00:04:04,VALID,999.647,VALID,0,VALID,93.6231,VALID,0,VALID,23.311,VALID,101,VALID,0.979688,
2010-09-28, 00:05:04,VALID,999.665,VALID,0,VALID,93.6231,VALID,0,VALID,23.2915,VALID,83,VALID,1.01445,
2010-09-28, 00:06:04,VALID,999.695,VALID,0,VALID,93.646,VALID,0,VALID,23.2915,VALID,70,VALID,0.958984,
2010-09-28, 00:07:04,VALID,999.679,VALID,0,VALID,93.6383,VALID,0,VALID,23.2719,VALID,67,VALID,0.954297,
2010-09-28, 00:08:04,VALID,999.651,VALID,0,VALID,93.6383,VALID,0,VALID,23.2524,VALID,66,VALID,0.90625,
2010-09-28, 00:09:04,VALID,999.642,VALID,0,VALID,93.646,VALID,0,VALID,23.2524,VALID,52,VALID,1,
2010-09-28, 00:10:04,VALID,999.576,VALID,0,VALID,93.646,VALID,0,VALID,23.2524,VALID,45,VALID,1.08438,
2010-09-28, 00:11:04,VALID,999.566,VALID,0,VALID,93.6536,VALID,0,VALID,23.2329,VALID,41,VALID,1.00117,
2010-09-28, 00:12:04,VALID,999.554,VALID,0,VALID,93.6536,VALID,0,VALID,23.2329,VALID,35,VALID,0.965234,
2010-09-28, 00:13:04,VALID,999.513,VALID,0,VALID,93.646,VALID,0,VALID,23.2134,VALID,31,VALID,1.05117,
2010-09-28, 00:14:04,VALID,999.495,VALID,0,VALID,93.6841,VALID,0,VALID,23.2329,VALID,31,VALID,1.01484,
2010-09-28, 00:15:04,VALID,999.475,VALID,0,VALID,93.6536,VALID,0,VALID,23.2329,VALID,31,VALID,1.02422,
2010-09-28, 00:16:04,VALID,999.433,VALID,0,VALID,93.6917,VALID,0,VALID,23.2329,VALID,31,VALID,0.870313,
2010-09-28, 00:17:04,VALID,999.419,VALID,0,VALID,93.6841,VALID,0,VALID,23.2524,VALID,31,VALID,0.854297,
2010-09-28, 00:18:04,VALID,999.412,VALID,0,VALID,93.6841,VALID,0,VALID,23.2524,VALID,31,VALID,0.755078,
2010-09-28, 00:19:04,VALID,999.388,VALID,0,VALID,93.6765,VALID,0,VALID,23.2524,VALID,31,VALID,0.74375,
2010-09-28, 00:20:04,VALID,999.377,VALID,0,VALID,93.6688,VALID,0,VALID,23.2719,VALID,31,VALID,0.625,
2010-09-28, 00:21:04,VALID,999.371,VALID,0,VALID,93.707,VALID,0,VALID,23.2524,VALID,31,VALID,0.753516,
2010-09-28, 00:22:04,VALID,999.334,VALID,0,VALID,93.707,VALID,0,VALID,23.2719,VALID,31,VALID,0.776563,
2010-09-28, 00:23:04,VALID,999.293,VALID,0,VALID,93.7223,VALID,0,VALID,23.2507,VALID,31,VALID,0.617578,
2010-09-28, 00:24:04,VALID,999.306,VALID,0,VALID,93.6994,VALID,0,VALID,23.2719,VALID,31,VALID,0.517187,
2010-09-28, 00:25:04,VALID,999.272,VALID,0,VALID,93.6994,VALID,0,VALID,23.2524,VALID,31,VALID,0.403906,
2010-09-28, 00:26:04,VALID,999.238,VALID,0,VALID,93.6994,VALID,0.112286,VALID,23.2507,VALID,37,VALID,0.735937,
2010-09-28, 00:27:04,VALID,999.246,VALID,0,VALID,93.707,VALID,0,VALID,23.2702,VALID,38,VALID,0.587891,
2010-09-28, 00:28:04,VALID,999.25,VALID,0,VALID,93.6994,VALID,0.112286,VALID,23.2897,VALID,38,VALID,0.394922,
2010-09-28, 00:29:04,VALID,999.268,VALID,0,VALID,93.7146,VALID,0.112286,VALID,23.2897,VALID,38,VALID,0.326562,
2010-09-28, 00:30:04,VALID,999.281,VALID,0,VALID,93.7299,VALID,0.112286,VALID,23.2897,VALID,38,VALID,0.311719,
2010-09-28, 00:31:04,VALID,999.31,VALID,0,VALID,93.7223,VALID,0,VALID,23.311,VALID,38,VALID,0.320313,
2010-09-28, 00:32:04,VALID,999.303,VALID,0,VALID,93.7375,VALID,0,VALID,23.3092,VALID,38,VALID,0.432422,
2010-09-28, 00:33:04,VALID,999.277,VALID,0,VALID,93.7299,VALID,0,VALID,23.3092,VALID,38,VALID,0.4,
2010-09-28, 00:34:04,VALID,999.279,VALID,0,VALID,93.7223,VALID,0,VALID,23.3092,VALID,38,VALID,0.526563,
2010-09-28, 00:35:04,VALID,999.26,VALID,0,VALID,93.7299,VALID,0,VALID,23.3092,VALID,38,VALID,0.390234,
2010-09-28, 00:36:04,VALID,999.268,VALID,0,VALID,93.7146,VALID,0,VALID,23.3092,VALID,38,VALID,0.511719,
2010-09-28, 00:37:04,VALID,999.241,VALID,0,VALID,93.7146,VALID,0,VALID,23.35,VALID,137,VALID,0.736719,
2010-09-28, 00:38:04,VALID,999.251,VALID,0,VALID,93.7146,VALID,0,VALID,23.4085,VALID,156,VALID,1.14922,
2010-09-28, 00:39:04,VALID,999.182,VALID,0,VALID,93.7375,VALID,0,VALID,23.4458,VALID,156,VALID,1.38242,
2010-09-28, 00:40:04,VALID,999.169,VALID,0,VALID,93.7375,VALID,0,VALID,23.5256,VALID,151,VALID,1.51172,
2010-09-28, 00:41:04,VALID,999.151,VALID,0,VALID,93.7299,VALID,0,VALID,23.5238,VALID,148,VALID,1.28906,
2010-09-28, 00:42:04,VALID,999.118,VALID,0,VALID,93.7299,VALID,0,VALID,23.5628,VALID,148,VALID,1.17148,
2010-09-28, 00:43:04,VALID,999.112,VALID,0,VALID,93.7146,VALID,0,VALID,23.5823,VALID,155,VALID,1.4125,
2010-09-28, 00:44:04,VALID,999.086,VALID,0,VALID,93.6917,VALID,0,VALID,23.6036,VALID,157,VALID,1.3707,
2010-09-28, 00:45:04,VALID,999.079,VALID,0,VALID,93.6841,VALID,0,VALID,23.6214,VALID,157,VALID,1.48516,
2010-09-28, 00:46:04,VALID,999.049,VALID,0,VALID,93.6841,VALID,0,VALID,23.6604,VALID,154,VALID,1.25742,
2010-09-28, 00:47:04,VALID,999.04,VALID,0,VALID,93.6841,VALID,0,VALID,23.6817,VALID,158,VALID,0.653125,
2010-09-28, 00:48:04,VALID,999.015,VALID,0,VALID,93.6841,VALID,0,VALID,23.6799,VALID,168,VALID,0.936719,
2010-09-28, 00:49:04,VALID,998.993,VALID,0,VALID,93.6688,VALID,0,VALID,23.6799,VALID,159,VALID,0.826172,
2010-09-28, 00:50:04,VALID,998.945,VALID,0,VALID,93.6307,VALID,0,VALID,23.6799,VALID,150,VALID,0.816016,
2010-09-28, 00:51:04,VALID,998.974,VALID,0,VALID,93.6154,VALID,0,VALID,23.6994,VALID,141,VALID,0.712891,
2010-09-28, 00:52:04,VALID,998.952,VALID,0,VALID,93.5697,VALID,0,VALID,23.6994,VALID,141,VALID,0.341797,
2010-09-28, 00:53:04,VALID,998.94,VALID,0,VALID,93.5697,VALID,0,VALID,23.6799,VALID,141,VALID,0.235938,
2010-09-28, 00:54:04,VALID,998.924,VALID,0,VALID,93.5315,VALID,0,VALID,23.7012,VALID,141,VALID,0.261719,
2010-09-28, 00:55:04,VALID,998.892,VALID,0,VALID,93.5468,VALID,0,VALID,23.6994,VALID,141,VALID,0.217578,
2010-09-28, 00:56:04,VALID,998.869,VALID,0,VALID,93.4934,VALID,0,VALID,23.6994,VALID,141,VALID,0.448438,
2010-09-28, 00:57:04,VALID,998.861,VALID,0,VALID,93.44,VALID,0,VALID,23.7402,VALID,215,VALID,0.532812,
2010-09-28, 00:58:04,VALID,998.883,VALID,0,VALID,93.4094,VALID,0,VALID,23.7384,VALID,215,VALID,0.363281,
2010-09-28, 00:59:04,VALID,998.859,VALID,0,VALID,93.3866,VALID,0,VALID,23.7384,VALID,215,VALID,0.410547,
2010-09-28, 01:00:04,VALID,998.864,VALID,0,VALID,93.3637,VALID,0,VALID,23.7597,VALID,215,VALID,0.0878906,
2010-09-28, 01:01:04,VALID,998.855,VALID,0,VALID,93.2874,VALID,0,VALID,23.7384,VALID,215,VALID,0,
2010-09-28, 01:02:04,VALID,998.858,VALID,0,VALID,93.2645,VALID,0,VALID,23.7597,VALID,215,VALID,0.4625,
2010-09-28, 01:03:04,VALID,998.874,VALID,0,VALID,93.2111,VALID,0,VALID,23.7384,VALID,215,VALID,0.458203,
2010-09-28, 01:04:04,VALID,998.872,VALID,0,VALID,93.1653,VALID,0,VALID,23.7597,VALID,215,VALID,0.405469,
2010-09-28, 01:05:04,VALID,998.863,VALID,0,VALID,93.1043,VALID,0,VALID,23.7384,VALID,215,VALID,0.404297,
2010-09-28, 01:06:04,VALID,998.842,VALID,0,VALID,93.0585,VALID,0,VALID,23.7402,VALID,215,VALID,0.486328,
2010-09-28, 01:07:04,VALID,998.847,VALID,0,VALID,93.0356,VALID,0,VALID,23.6994,VALID,215,VALID,0.314063,
2010-09-28, 01:08:04,VALID,998.807,VALID,0,VALID,92.9898,VALID,0,VALID,23.6817,VALID,215,VALID,0.120703,
2010-09-28, 01:09:04,VALID,998.808,VALID,0,VALID,92.9669,VALID,0,VALID,23.6622,VALID,215,VALID,0,
2010-09-28, 01:10:04,VALID,998.788,VALID,0,VALID,92.9517,VALID,0,VALID,23.6622,VALID,215,VALID,0,
2010-09-28, 01:11:04,VALID,998.767,VALID,0,VALID,92.9211,VALID,0,VALID,23.664,VALID,215,VALID,0,
2010-09-28, 01:12:04,VALID,998.795,VALID,0,VALID,92.8906,VALID,0,VALID,23.6427,VALID,215,VALID,0,
2010-09-28, 01:13:04,VALID,998.783,VALID,0,VALID,92.8754,VALID,0,VALID,23.6232,VALID,215,VALID,0.290234,
2010-09-28, 01:14:04,VALID,998.785,VALID,0,VALID,92.883,VALID,0,VALID,23.6232,VALID,215,VALID,0.580859,
2010-09-28, 01:15:04,VALID,998.791,VALID,0,VALID,92.8983,VALID,0,VALID,23.6036,VALID,215,VALID,0.687109,
2010-09-28, 01:16:04,VALID,998.797,VALID,0,VALID,92.9211,VALID,0,VALID,23.6036,VALID,215,VALID,0.798047,
2010-09-28, 01:17:04,VALID,998.835,VALID,0,VALID,92.9211,VALID,0,VALID,23.5841,VALID,215,VALID,0.986719,
2010-09-28, 01:18:04,VALID,998.866,VALID,0,VALID,92.9135,VALID,0,VALID,23.5841,VALID,26,VALID,1.07383,
2010-09-28, 01:19:04,VALID,998.903,VALID,0,VALID,92.9364,VALID,0,VALID,23.5859,VALID,26,VALID,1.01914,
2010-09-28, 01:20:04,VALID,998.897,VALID,0,VALID,92.944,VALID,0,VALID,23.5451,VALID,26,VALID,0.929688,
2010-09-28, 01:21:04,VALID,998.955,VALID,0,VALID,92.9517,VALID,0,VALID,23.5841,VALID,26,VALID,0.789063,
2010-09-28, 01:22:04,VALID,998.978,VALID,0,VALID,92.9517,VALID,0,VALID,23.5841,VALID,26,VALID,0.575391,
2010-09-28, 01:23:04,VALID,998.987,VALID,0,VALID,92.9593,VALID,0,VALID,23.5628,VALID,26,VALID,0.401563,
2010-09-28, 01:24:04,VALID,999.01,VALID,0,VALID,92.9822,VALID,0,VALID,23.5823,VALID,26,VALID,0.372266,
2010-09-28, 01:25:04,VALID,999.014,VALID,0,VALID,92.9974,VALID,0.112286,VALID,23.6019,VALID,26,VALID,0.226953,
2010-09-28, 01:26:04,VALID,999.038,VALID,0,VALID,93.0203,VALID,0,VALID,23.6019,VALID,26,VALID,0.238281,
2010-09-28, 01:27:04,VALID,998.99,VALID,0,VALID,93.0356,VALID,0,VALID,23.6019,VALID,26,VALID,0.503906,
2010-09-28, 01:28:04,VALID,999.05,VALID,0,VALID,93.0508,VALID,0.112286,VALID,23.6019,VALID,26,VALID,0.603906,
2010-09-28, 01:29:04,VALID,999.049,VALID,0,VALID,93.0661,VALID,0,VALID,23.6019,VALID,32,VALID,0.834375,
2010-09-28, 01:30:04,VALID,999.085,VALID,0,VALID,93.0661,VALID,0,VALID,23.6036,VALID,33,VALID,0.812891,
2010-09-28, 01:31:04,VALID,999.093,VALID,0,VALID,93.0585,VALID,0,VALID,23.6019,VALID,59,VALID,0.775781,
2010-09-28, 01:32:04,VALID,999.101,VALID,0,VALID,93.0661,VALID,0,VALID,23.6232,VALID,57,VALID,0.959375,
2010-09-28, 01:33:04,VALID,999.118,VALID,0,VALID,93.0966,VALID,0,VALID,23.6019,VALID,57,VALID,0.78125,
2010-09-28, 01:34:04,VALID,999.113,VALID,0,VALID,93.089,VALID,0,VALID,23.6019,VALID,57,VALID,0.685156,
2010-09-28, 01:35:04,VALID,999.072,VALID,0,VALID,93.0737,VALID,0,VALID,23.6214,VALID,56,VALID,0.423047,
2010-09-28, 01:36:04,VALID,999.156,VALID,0,VALID,93.1043,VALID,0,VALID,23.6214,VALID,56,VALID,0.262891,
2010-09-28, 01:37:04,VALID,999.123,VALID,0,VALID,93.1043,VALID,0,VALID,23.6232,VALID,56,VALID,0.187891,
2010-09-28, 01:38:04,VALID,999.131,VALID,0,VALID,93.089,VALID,0,VALID,23.6019,VALID,56,VALID,0.346484,
2010-09-28, 01:39:04,VALID,999.155,VALID,0,VALID,93.1043,VALID,0,VALID,23.6019,VALID,56,VALID,0.364844,
2010-09-28, 01:40:04,VALID,999.163,VALID,0,VALID,93.0814,VALID,0,VALID,23.6019,VALID,56,VALID,0.299219,
2010-09-28, 01:41:04,VALID,999.196,VALID,0,VALID,93.1119,VALID,0,VALID,23.6019,VALID,56,VALID,0.294531,
2010-09-28, 01:42:04,VALID,999.219,VALID,0,VALID,93.1195,VALID,0,VALID,23.5823,VALID,56,VALID,0.317578,
2010-09-28, 01:43:04,VALID,999.207,VALID,0,VALID,93.1271,VALID,0,VALID,23.5823,VALID,56,VALID,0.327344,
2010-09-28, 01:44:04,VALID,999.208,VALID,0,VALID,93.1348,VALID,0,VALID,23.5628,VALID,56,VALID,0.45625,
2010-09-28, 01:45:04,VALID,999.183,VALID,0,VALID,93.1348,VALID,0,VALID,23.5841,VALID,56,VALID,0.542578,
2010-09-28, 01:46:04,VALID,999.179,VALID,0,VALID,93.1424,VALID,0,VALID,23.5823,VALID,47,VALID,0.523047,
2010-09-28, 01:47:04,VALID,999.154,VALID,0,VALID,93.1805,VALID,0,VALID,23.5823,VALID,344,VALID,0.632422,
2010-09-28, 01:48:04,VALID,999.146,VALID,0,VALID,93.1882,VALID,0,VALID,23.5823,VALID,336,VALID,0.641797,
2010-09-28, 01:49:04,VALID,999.166,VALID,0,VALID,93.1882,VALID,0,VALID,23.5823,VALID,334,VALID,0.426953,
2010-09-28, 01:50:04,VALID,999.211,VALID,0,VALID,93.1882,VALID,0,VALID,23.5823,VALID,334,VALID,0.310547,
2010-09-28, 01:51:04,VALID,999.201,VALID,0,VALID,93.1882,VALID,0,VALID,23.5823,VALID,334,VALID,0,
2010-09-28, 01:52:04,VALID,999.225,VALID,0,VALID,93.1805,VALID,0,VALID,23.5628,VALID,334,VALID,0,
2010-09-28, 01:53:04,VALID,999.259,VALID,0,VALID,93.1958,VALID,0,VALID,23.5628,VALID,334,VALID,0.209766,
2010-09-28, 01:54:04,VALID,999.253,VALID,0,VALID,93.1805,VALID,0,VALID,23.5628,VALID,334,VALID,0.517578,
2010-09-28, 01:55:04,VALID,999.28,VALID,0,VALID,93.2034,VALID,0,VALID,23.5433,VALID,334,VALID,0.69375,
2010-09-28, 01:56:04,VALID,999.264,VALID,0,VALID,93.2111,VALID,0,VALID,23.5628,VALID,334,VALID,0.78125,
2010-09-28, 01:57:04,VALID,999.25,VALID,0,VALID,93.2263,VALID,0,VALID,23.5823,VALID,334,VALID,0.844922,
2010-09-28, 01:58:04,VALID,999.219,VALID,0,VALID,93.1958,VALID,0,VALID,23.5823,VALID,334,VALID,0.620703,
2010-09-28, 01:59:04,VALID,999.223,VALID,0,VALID,93.2111,VALID,0,VALID,23.6019,VALID,158,VALID,0.773828,
2010-09-28, 02:00:04,VALID,999.188,VALID,0,VALID,93.2034,VALID,0,VALID,23.6214,VALID,159,VALID,0.546094,
2010-09-28, 02:01:04,VALID,999.204,VALID,0,VALID,93.2034,VALID,0,VALID,23.6409,VALID,173,VALID,0.677734,
2010-09-28, 02:02:04,VALID,999.207,VALID,0,VALID,93.1729,VALID,0,VALID,23.6622,VALID,176,VALID,0.596094,
2010-09-28, 02:03:04,VALID,999.168,VALID,0,VALID,93.15,VALID,0,VALID,23.6604,VALID,176,VALID,0.362891,
2010-09-28, 02:04:04,VALID,999.163,VALID,0,VALID,93.1424,VALID,0,VALID,23.6799,VALID,176,VALID,0.316797,
2010-09-28, 02:05:04,VALID,999.171,VALID,0,VALID,93.0737,VALID,0,VALID,23.6799,VALID,176,VALID,0.455078,
2010-09-28, 02:06:04,VALID,999.164,VALID,0,VALID,93.0661,VALID,0,VALID,23.6409,VALID,176,VALID,0.511719,
2010-09-28, 02:07:04,VALID,999.165,VALID,0,VALID,93.028,VALID,0,VALID,23.6214,VALID,176,VALID,0.539453,
2010-09-28, 02:08:04,VALID,999.139,VALID,0,VALID,93.0127,VALID,0,VALID,23.6445,VALID,176,VALID,0.693359,
2010-09-28, 02:09:04,VALID,999.133,VALID,0,VALID,92.9517,VALID,0,VALID,23.5841,VALID,176,VALID,0.777344,
2010-09-28, 02:10:04,VALID,999.107,VALID,0,VALID,92.9593,VALID,0,VALID,23.5841,VALID,176,VALID,0.655859,
2010-09-28, 02:11:04,VALID,999.111,VALID,0,VALID,92.9364,VALID,0,VALID,23.5646,VALID,296,VALID,0.604297,
2010-09-28, 02:12:04,VALID,999.123,VALID,0,VALID,92.9593,VALID,0,VALID,23.5664,VALID,319,VALID,0.269922,
2010-09-28, 02:13:04,VALID,999.094,VALID,0,VALID,92.9517,VALID,0,VALID,23.5451,VALID,319,VALID,0.2875,
2010-09-28, 02:14:04,VALID,999.08,VALID,0,VALID,92.9669,VALID,0,VALID,23.5256,VALID,319,VALID,0.362891,
2010-09-28, 02:15:04,VALID,999.063,VALID,0,VALID,92.9898,VALID,0,VALID,23.5256,VALID,319,VALID,0.0859375,
2010-09-28, 02:16:04,VALID,999.073,VALID,0,VALID,92.9974,VALID,0,VALID,23.5061,VALID,319,VALID,0.0449219,
2010-09-28, 02:17:04,VALID,999.086,VALID,0,VALID,93.0051,VALID,0,VALID,23.5061,VALID,319,VALID,0,
2010-09-28, 02:18:04,VALID,999.055,VALID,0,VALID,93.0203,VALID,0,VALID,23.5061,VALID,302,VALID,0,
2010-09-28, 02:19:04,VALID,999.056,VALID,0,VALID,93.0508,VALID,0,VALID,23.5469,VALID,242,VALID,0.618359,
2010-09-28, 02:20:04,VALID,999.071,VALID,0,VALID,93.0585,VALID,0,VALID,23.5256,VALID,242,VALID,0.617969,
2010-09-28, 02:21:04,VALID,999.043,VALID,0,VALID,93.0814,VALID,0,VALID,23.5256,VALID,239,VALID,0.607031,
2010-09-28, 02:22:04,VALID,999.023,VALID,0,VALID,93.089,VALID,0,VALID,23.5256,VALID,239,VALID,0.616016,
2010-09-28, 02:23:04,VALID,999.037,VALID,0,VALID,93.1119,VALID,0,VALID,23.5433,VALID,239,VALID,0.457422,
2010-09-28, 02:24:04,VALID,999.009,VALID,0,VALID,93.1195,VALID,0,VALID,23.5433,VALID,239,VALID,0.710547,
2010-09-28, 02:25:04,VALID,999.035,VALID,0,VALID,93.1043,VALID,0,VALID,23.5433,VALID,239,VALID,0.417969,
2010-09-28, 02:26:04,VALID,999.052,VALID,0,VALID,93.1348,VALID,0.112286,VALID,23.5628,VALID,239,VALID,0.506641,
2010-09-28, 02:27:04,VALID,999.067,VALID,0,VALID,93.1195,VALID,0,VALID,23.5433,VALID,259,VALID,0.63125,
2010-09-28, 02:28:04,VALID,999.089,VALID,0,VALID,93.1271,VALID,0,VALID,23.5433,VALID,259,VALID,0.339063,
2010-09-28, 02:29:04,VALID,999.127,VALID,0,VALID,93.1424,VALID,0,VALID,23.5433,VALID,259,VALID,0.414453,
2010-09-28, 02:30:04,VALID,999.164,VALID,0,VALID,93.1271,VALID,0,VALID,23.5238,VALID,259,VALID,0.5125,
2010-09-28, 02:31:04,VALID,999.197,VALID,0,VALID,93.0966,VALID,0,VALID,23.5043,VALID,259,VALID,0.548437,
2010-09-28, 02:32:04,VALID,999.226,VALID,0,VALID,93.0966,VALID,0,VALID,23.4848,VALID,259,VALID,0.5875,
2010-09-28, 02:33:04,VALID,999.233,VALID,0,VALID,93.0966,VALID,0.112286,VALID,23.4245,VALID,358,VALID,0.726953,
2010-09-28, 02:34:04,VALID,999.263,VALID,0,VALID,93.0966,VALID,0.112286,VALID,23.4067,VALID,17,VALID,0.729688,
2010-09-28, 02:35:04,VALID,999.292,VALID,0,VALID,93.0814,VALID,0,VALID,23.3872,VALID,17,VALID,0.629297,
2010-09-28, 02:36:04,VALID,999.284,VALID,0,VALID,93.0814,VALID,0,VALID,23.366,VALID,17,VALID,0.564844,
2010-09-28, 02:37:04,VALID,999.298,VALID,0,VALID,93.0814,VALID,0.112286,VALID,23.3677,VALID,17,VALID,0.596484,
2010-09-28, 02:38:04,VALID,999.273,VALID,0,VALID,93.1195,VALID,0.112286,VALID,23.3482,VALID,17,VALID,0.542188,
2010-09-28, 02:39:04,VALID,999.291,VALID,0,VALID,93.1271,VALID,0.112286,VALID,23.3482,VALID,17,VALID,0.458203,
2010-09-28, 02:40:04,VALID,999.286,VALID,0,VALID,93.1805,VALID,0,VALID,23.3482,VALID,17,VALID,0.336719,
2010-09-28, 02:41:04,VALID,999.247,VALID,0,VALID,93.15,VALID,0,VALID,23.35,VALID,17,VALID,0.212109,
2010-09-28, 02:42:04,VALID,999.23,VALID,0,VALID,93.1805,VALID,0,VALID,23.2897,VALID,17,VALID,0.291016,
2010-09-28, 02:43:04,VALID,999.243,VALID,0,VALID,93.1805,VALID,0,VALID,23.2897,VALID,17,VALID,0.250391,
2010-09-28, 02:44:04,VALID,999.215,VALID,0,VALID,93.1958,VALID,0,VALID,23.2897,VALID,17,VALID,0.198828,
2010-09-28, 02:45:04,VALID,999.202,VALID,0,VALID,93.234,VALID,0,VALID,23.3287,VALID,17,VALID,0.211719,
2010-09-28, 02:46:04,VALID,999.191,VALID,0,VALID,93.2645,VALID,0,VALID,23.3482,VALID,17,VALID,0.28125,
2010-09-28, 02:47:04,VALID,999.21,VALID,0,VALID,93.3179,VALID,0,VALID,23.3677,VALID,17,VALID,0.315234,
2010-09-28, 02:48:04,VALID,999.214,VALID,0,VALID,93.3026,VALID,0,VALID,23.3872,VALID,17,VALID,0.299609,
2010-09-28, 02:49:04,VALID,999.198,VALID,0,VALID,93.3331,VALID,0,VALID,23.3872,VALID,17,VALID,0.112891,
2010-09-28, 02:50:04,VALID,999.21,VALID,0,VALID,93.3484,VALID,0,VALID,23.3677,VALID,17,VALID,0,
2010-09-28, 02:51:04,VALID,999.194,VALID,0,VALID,93.356,VALID,0,VALID,23.3482,VALID,17,VALID,0,
2010-09-28, 02:52:04,VALID,999.182,VALID,0,VALID,93.356,VALID,0,VALID,23.3482,VALID,17,VALID,0,
2010-09-28, 02:53:04,VALID,999.173,VALID,0,VALID,93.356,VALID,0,VALID,23.3074,VALID,17,VALID,0,
2010-09-28, 02:54:04,VALID,999.139,VALID,0,VALID,93.3866,VALID,0.112286,VALID,23.3482,VALID,17,VALID,0,
2010-09-28, 02:55:04,VALID,999.19,VALID,0,VALID,93.4094,VALID,0,VALID,23.3677,VALID,17,VALID,0,
2010-09-28, 02:56:04,VALID,999.14,VALID,0,VALID,93.4094,VALID,0.112286,VALID,23.3482,VALID,68,VALID,0.179688,
2010-09-28, 02:57:04,VALID,999.148,VALID,0,VALID,93.4247,VALID,0.112286,VALID,23.3287,VALID,114,VALID,0.558203,
2010-09-28, 02:58:04,VALID,999.13,VALID,0,VALID,93.4094,VALID,0,VALID,23.3677,VALID,151,VALID,0.676953,
2010-09-28, 02:59:04,VALID,999.152,VALID,0,VALID,93.4247,VALID,0,VALID,23.4458,VALID,151,VALID,0.822266,
2010-09-28, 03:00:04,VALID,999.168,VALID,0,VALID,93.4476,VALID,0,VALID,23.4848,VALID,183,VALID,0.941797,
2010-09-28, 03:01:04,VALID,999.171,VALID,0,VALID,93.4323,VALID,0.112286,VALID,23.4848,VALID,183,VALID,0.951563,
2010-09-28, 03:02:04,VALID,999.209,VALID,0,VALID,93.4476,VALID,0,VALID,23.5238,VALID,183,VALID,1.01641,
2010-09-28, 03:03:04,VALID,999.192,VALID,0,VALID,93.4323,VALID,0,VALID,23.5433,VALID,178,VALID,1.49141,
2010-09-28, 03:04:04,VALID,999.227,VALID,0,VALID,93.44,VALID,0,VALID,23.5823,VALID,170,VALID,1.40117,
2010-09-28, 03:05:04,VALID,999.244,VALID,0,VALID,93.3942,VALID,0.112286,VALID,23.6214,VALID,173,VALID,1.96367,
2010-09-28, 03:06:04,VALID,999.238,VALID,0,VALID,93.3484,VALID,0,VALID,23.6409,VALID,171,VALID,1.96992,
2010-09-28, 03:07:04,VALID,999.229,VALID,0,VALID,93.3255,VALID,0,VALID,23.6214,VALID,165,VALID,1.66094,
2010-09-28, 03:08:04,VALID,999.211,VALID,0,VALID,93.2645,VALID,0,VALID,23.5823,VALID,168,VALID,1.3957,
2010-09-28, 03:09:04,VALID,999.226,VALID,0,VALID,93.2111,VALID,0,VALID,23.5433,VALID,166,VALID,1.49414,
2010-09-28, 03:10:04,VALID,999.164,VALID,0,VALID,93.15,VALID,0,VALID,23.5043,VALID,163,VALID,1.17695,
2010-09-28, 03:11:04,VALID,999.203,VALID,0,VALID,93.0814,VALID,0,VALID,23.4848,VALID,165,VALID,1.12227,
2010-09-28, 03:12:04,VALID,999.156,VALID,0,VALID,93.0508,VALID,0,VALID,23.4458,VALID,165,VALID,0.926172,
2010-09-28, 03:13:04,VALID,999.151,VALID,0,VALID,93.0051,VALID,0,VALID,23.4263,VALID,165,VALID,0.791797,
2010-09-28, 03:14:04,VALID,999.164,VALID,0,VALID,92.9593,VALID,0,VALID,23.4263,VALID,165,VALID,0.388672,
2010-09-28, 03:15:04,VALID,999.137,VALID,0,VALID,92.9211,VALID,0,VALID,23.3872,VALID,165,VALID,0.389062,
2010-09-28, 03:16:04,VALID,999.173,VALID,0,VALID,92.8983,VALID,0,VALID,23.366,VALID,165,VALID,0.405469,
2010-09-28, 03:17:04,VALID,999.166,VALID,0,VALID,92.8677,VALID,0.112286,VALID,23.3677,VALID,165,VALID,0.475391,
2010-09-28, 03:18:04,VALID,999.145,VALID,0,VALID,92.8448,VALID,0,VALID,23.3482,VALID,68,VALID,0.987891,
2010-09-28, 03:19:04,VALID,999.141,VALID,0,VALID,92.822,VALID,0,VALID,23.3092,VALID,61,VALID,0.966797,
2010-09-28, 03:20:04,VALID,999.136,VALID,0,VALID,92.7838,VALID,0,VALID,23.2897,VALID,61,VALID,0.784766,
2010-09-28, 03:21:04,VALID,999.125,VALID,0,VALID,92.8143,VALID,0,VALID,23.2507,VALID,61,VALID,0.729297,
2010-09-28, 03:22:04,VALID,999.103,VALID,0,VALID,92.7914,VALID,0,VALID,23.2099,VALID,61,VALID,0.633594,
2010-09-28, 03:23:04,VALID,999.11,VALID,0,VALID,92.7991,VALID,0,VALID,23.2134,VALID,61,VALID,0.520703,
2010-09-28, 03:24:04,VALID,999.066,VALID,0,VALID,92.7991,VALID,0,VALID,23.1744,VALID,41,VALID,0.626172,
2010-09-28, 03:25:04,VALID,999.058,VALID,0,VALID,92.8143,VALID,0,VALID,23.1549,VALID,41,VALID,0.556641,
2010-09-28, 03:26:04,VALID,999.035,VALID,0,VALID,92.8372,VALID,0,VALID,23.1159,VALID,41,VALID,0.658984,
2010-09-28, 03:27:04,VALID,999.008,VALID,0,VALID,92.8754,VALID,0,VALID,23.1354,VALID,41,VALID,0.715625,
2010-09-28, 03:28:04,VALID,999.022,VALID,0,VALID,92.9135,VALID,0,VALID,23.1354,VALID,41,VALID,0.6875,
2010-09-28, 03:29:04,VALID,999.014,VALID,0,VALID,92.9517,VALID,0,VALID,23.1159,VALID,41,VALID,0.63125,
2010-09-28, 03:30:04,VALID,998.962,VALID,0,VALID,92.9974,VALID,0,VALID,23.1159,VALID,41,VALID,0.545313,
2010-09-28, 03:31:04,VALID,998.954,VALID,0,VALID,93.0356,VALID,0,VALID,23.1354,VALID,41,VALID,0.447266,
2010-09-28, 03:32:04,VALID,998.913,VALID,0,VALID,93.0814,VALID,0,VALID,23.1354,VALID,41,VALID,0.399609,
2010-09-28, 03:33:04,VALID,998.947,VALID,0,VALID,93.1043,VALID,0,VALID,23.1354,VALID,41,VALID,0.480859,
2010-09-28, 03:34:04,VALID,998.941,VALID,0,VALID,93.1271,VALID,0,VALID,23.1549,VALID,41,VALID,0.421094,
2010-09-28, 03:35:04,VALID,998.948,VALID,0,VALID,93.1577,VALID,0,VALID,23.1744,VALID,41,VALID,0.400391,
2010-09-28, 03:36:04,VALID,998.919,VALID,0,VALID,93.1805,VALID,0,VALID,23.1744,VALID,47,VALID,0.548437,
2010-09-28, 03:37:04,VALID,998.926,VALID,0,VALID,93.1805,VALID,0,VALID,23.1744,VALID,47,VALID,0.516406,
2010-09-28, 03:38:04,VALID,998.901,VALID,0,VALID,93.2187,VALID,0,VALID,23.1531,VALID,47,VALID,0.456641,
2010-09-28, 03:39:04,VALID,998.932,VALID,0,VALID,93.2111,VALID,0,VALID,23.1531,VALID,47,VALID,0.464844,
2010-09-28, 03:40:04,VALID,998.938,VALID,0,VALID,93.2187,VALID,0.112286,VALID,23.1531,VALID,47,VALID,0.381641,
2010-09-28, 03:41:04,VALID,998.927,VALID,0,VALID,93.2187,VALID,0,VALID,23.1531,VALID,47,VALID,0.296094,
2010-09-28, 03:42:04,VALID,998.885,VALID,0,VALID,93.2492,VALID,0,VALID,23.1336,VALID,47,VALID,0.240625,
2010-09-28, 03:43:04,VALID,998.869,VALID,0,VALID,93.2568,VALID,0,VALID,23.1124,VALID,107,VALID,0.359766,
2010-09-28, 03:44:04,VALID,998.844,VALID,0,VALID,93.2568,VALID,0.112286,VALID,23.1531,VALID,116,VALID,0.5,
2010-09-28, 03:45:04,VALID,998.828,VALID,0,VALID,93.2645,VALID,0.112286,VALID,23.1531,VALID,132,VALID,0.722656,